Skip Page Navigation
NASA JPL Caltech
NASA Logo - Jet Propulsion Laboratory + View the NASA Portal
+ Center for Near-Earth Object Studies
JPL Home Earth Solar System Stars & Galaxies Technology
JPL Solar System Dynamics
BODIES ORBITS EPHEMERIDES TOOLS PHYSICAL DATA DISCOVERY FAQ SITE MAP
IMPORTANT: The SSD Announcement email list is now available. Major changes are coming in the near future, including possible hostname and/or URL changes. To be notified of such changes, subscribe to this email list.

Please visit this page for more details.


JPL Small-Body Database Browser
Search: [ help ]  
376630 (2013 PU67)
Classification: Main-belt Asteroid          SPK-ID: 2376630
Ephemeris | Orbit Diagram | Orbital Elements | Mission Design | Physical Parameters | Discovery Circumstances | Close-Approach Data ]

[ show orbit diagram ]
Orbital Elements at Epoch 2459000.5 (2020-May-31.0) TDB
Reference: JPL 14 (heliocentric ecliptic J2000)
 Element Value Uncertainty (1-sigma)   Units 
e .192778644259666 1.0479e-07  
a 2.456265171691515 3.4976e-08 au
q 1.982749701950589 2.4556e-07 au
i 2.549232541233935 1.5405e-05 deg
node 161.6560805242154 0.00010638 deg
peri 132.2752237304661 0.00011558 deg
M 298.5682670734142 4.6651e-05 deg
tp 2459240.439399703994
(2021-Jan-25.93939970)
0.00018561 TDB
period 1406.084116114135
3.85
3.0033e-05
8.223e-08
d
yr
n .2560302018025059 5.4686e-09 deg/d
Q 2.929780641432441 4.1718e-08 au
  Orbit Determination Parameters
   # obs. used (total)      126  
   data-arc span      3972 days (10.87 yr)  
   first obs. used      2006-11-16  
   last obs. used      2017-10-01  
   planetary ephem.      DE431  
   SB-pert. ephem.      SB431-N16  
   condition code      0  
   norm. resid. RMS      .63151  
   source      ORB  
   producer      Otto Matic  
   solution date      2017-Oct-09 19:29:54  

Additional Information
 Earth MOID = .967806 au 
 Jupiter MOID = 2.26948 au 
 T_jup = 3.465 
[ show covariance matrix ]

Ephemeris | Orbit Diagram | Orbital Elements | Mission Design | Physical Parameters | Discovery Circumstances | Close-Approach Data ]

Physical Parameter Table
Parameter Symbol Value Units Sigma Reference Notes
absolute magnitude H 17.4   n/a MPO423382  

376630 (2013 PU67)          Discovered 2008-Feb-08 by Spacewatch at Kitt Peak
Reference: Last Updated: 2013-10-21

[ show close-approach data ]
Alternate Designations
 2013 PU67 = 2009 OH2 = 2012 DZ95 
Ephemeris | Orbit Diagram | Orbital Elements | Mission Design | Physical Parameters | Discovery Circumstances | Close-Approach Data ]
ABOUT SSD CREDITS/AWARDS PRIVACY/COPYRIGHT GLOSSARY LINKS
FirstGov 2020-Feb-18 01:52 UT
(server date/time)  
NASA Home Page
Site Manager:   Ryan S. Park
Webmaster  Alan B. Chamberlin